Regional Weather Roundup
Issued by NWS

Home | Current Version | Previous Version | Graphics & Text | Print | Product List | Glossary On
Versions: 1 2 3 4 5 6 7 8 9 10 11 12 13 14 15 16 17 18 19 20 21 22 23 24 25 26 27
000
ASUS45 KBOU 242307
RWRCO

WEATHER ROUNDUP FOR COLORADO
NATIONAL WEATHER SERVICE DENVER/BOULDER CO
500 PM MDT TUE MAY 24 2016

NOTE: "FAIR" INDICATES FEW OR NO CLOUDS BELOW 12000 FEET WITH NO
SIGNIFICANT WEATHER AND/OR OBSTRUCTIONS TO VISIBILITY.

COZ001>005-013-030-031-250000-
...NORTHWEST COLORADO...

CITY           SKY/WX    TMP DP  RH WIND       PRES   REMARKS
CRAIG          FAIR      67  27  22 SW13      29.84F
HAYDEN         FAIR      68  25  19 W18G24    29.86S
MEEKER         FAIR      70  19  14 SW16G28   29.86S
MOUNT WERNER   NOT AVBL
STEAMBOAT SPGS FAIR      67  20  16 SW13G23   29.87S
WALDEN         PTSUNNY   61  16  17 W13G25    29.95F
$$

COZ006>008-011-250000-
...WEST CENTRAL VALLEYS...

CITY           SKY/WX    TMP DP  RH WIND       PRES   REMARKS
GRAND JUNCTION FAIR      76  13   9 SW30G38   29.81S
MONTROSE       FAIR      74  18  12 SW20G32   29.88S
EAGLE          SUNNY     72  21  15 SW28G37   29.89R
RIFLE          FAIR      75  18  11 SW18G29   29.83F
DELTA          FAIR      80  17   9 W21G33    29.84S
NUCLA          FAIR      72  12  10 SW22G39   29.94S
$$

COZ017>023-064>068-250000-
...SOUTHWEST COLORADO...

CITY           SKY/WX    TMP DP  RH WIND       PRES   REMARKS
DURANGO        FAIR      70  14  11 SW17G30   29.98F
CORTEZ         FAIR      74  15  10 SW23G30   29.95S
PAGOSA SPRINGS FAIR      66   8  10 SW21G31   30.05F
TELLURIDE      PTSUNNY   57  16  20 S15G26    30.09S
WOLF CREEK PAS CLOUDY    39  19  45 SW22G45   30.27S
$$

COZ009-010-012-014-032>034-037-058>063-250000-
...CENTRAL COLORADO...

CITY           SKY/WX    TMP DP  RH WIND       PRES   REMARKS
ASPEN          FAIR      64  23  21 S18G33    29.98R
BUENA VISTA    FAIR      67   9  10 SW22G28   29.95S
COPPER MTN     NOT AVBL
BERTHOUD PASS  CLOUDY    36  28  75 SE23      30.21S
COTTONWOOD PAS CLOUDY    59   0   9 S18G31    30.07S
GUNNISON       FAIR      66  14  13 SW20G25   29.99R
KREMMLING      PTSUNNY   64  10  12 S13G25    29.92R
LEADVILLE      FAIR      58   4  11 S24G36    30.04F
MONARCH PASS   CLOUDY    43  16  33 SW31G45   30.30S
SALIDA         FAIR      73  12   9 SW17G29   30.02R
SUNLIGHT       FAIR      52  23  32 CALM      30.14S
WILKERSON PASS CLOUDY    50  18  27 S7        30.17S
$$

COZ069>075-250000-
...SAN LUIS VALLEY/SANGRE DE CRISTO MOUNTAINS...

CITY           SKY/WX    TMP DP  RH WIND       PRES   REMARKS
ALAMOSA        FAIR      71  17  12 W29G36    29.99F
LA VETA PASS   CLOUDY    54  21  28 S10G22    30.15F
SAGUACHE       FAIR      68  18  14 SW16G23   30.00F
$$

COZ035-036-038>040-250000-
...NORTHERN COLORADO FRONT RANGE...

CITY           SKY/WX    TMP DP  RH WIND       PRES   REMARKS
DENVER INTL AP PTSUNNY   69  52  54 NE18      29.83R
DMNS CITY PARK   N/A     71  42  35 NE7G20    29.82F
AURORA         PTSUNNY   68  49  49 N13       29.83F
FRONT RANGE AP LGT RAIN  63  52  67 NE10G23   29.84R
ERIE MUNI ARPT FAIR      70  46  41 NE7       29.82F
BOULDER MUN AP FAIR      72  43  35 E8        29.83R
CENTENNIAL     PTSUNNY   68  42  38 N13       29.83F
BROOMFIELD     PTSUNNY   68  46  45 N6        29.85F
FORT COLLINS   FAIR      43  43 100 E5        29.84S
LONGMONT       FAIR      75  46  35 SE5       29.84S
$$

COZ041-046-047-076>085-087-088-250000-
...PIKES PEAK/PALMER DIVIDE AND SOUTHERN FOOTHILLS...

CITY           SKY/WX    TMP DP  RH WIND       PRES   REMARKS
COLO. SPRINGS  PTSUNNY   73  35  25 S23       29.89F THUNDER
A. F. ACADEMY  FAIR      70  37  30 SE21G29   29.89F
SCHRIEVER AFB  NOT AVBL
ELLICOTT       FAIR     N/A N/A N/A S21G28    29.87F
FALCON         FAIR      71  35  27 S16       29.94F
FORT CARSON    FAIR      73  39  29 S13       29.85F
LIMON          FAIR      75  38  26 S23G37    29.84F
MONUMENT HILL  FAIR      68  36  30 S23       29.93S
TRINIDAD       FAIR      79  21  11 S13       29.84F
$$

COZ042>045-048>051-090-091-250000-
...NORTHEAST COLORADO...

CITY           SKY/WX    TMP DP  RH WIND       PRES   REMARKS
GREELEY ARPT   FAIR      68  48  49 E16G22    29.84F
AKRON          FAIR      69  53  56 SE17      29.82F
BURLINGTON     FAIR      80  52  37 S13G23    29.82F
WRAY           PTSUNNY   79  55  44 SE14G23   29.81F
STERLING       FAIR      72  54  53 S12       29.82R
HOLYOKE        FAIR      77  55  47 SE13      29.82F
FORT MORGAN    CLOUDY    68  43  41 E6        29.85S
$$

COZ086-089-092>099-250000-
...SOUTHEAST COLORADO...

CITY           SKY/WX    TMP DP  RH WIND       PRES   REMARKS
PUEBLO         FAIR      84  34  16 S18       29.78F
LA JUNTA       FAIR      86  40  19 E16G23    29.77F
LAMAR          FAIR      87  42  20 S13G21    29.74F
SPRINGFIELD      N/A     85  25  11 S18G30    29.80F
$$




USA.gov is the U.S. government's official web portal to all federal, state and local government web resources and services.